Location: Newark
(52.2583°N, 7.1190°W)
Time: 16:13:41
(UTC+00:00)

Vanguard 2 - Visible Passes

Search period start: 17 November 2019 00:00
Search period end: 27 November 2019 00:00
Orbit: 554 x 2937 km, 32.9° (Epoch: 16 November)

Date Brightness Start Highest point End Pass type
(mag) Time Alt. Az. Time Alt. Az. Time Alt. Az.
21 Nov 11.7 06:56:32 10° S 07:00:22 12° SSE 07:03:44 10° SE visible
22 Nov 11.5 07:11:45 10° SSW 07:17:59 16° SSE 07:22:58 10° SE visible
23 Nov 11.8 05:25:33 10° SSE 05:27:00 10° SSE 05:28:24 10° SE visible
24 Nov 11.7 05:38:12 10° S 05:44:33 14° SSE 05:49:55 10° SE visible
25 Nov 11.5 05:53:32 10° SSW 06:02:07 18° SSE 06:08:56 10° ESE visible
26 Nov 11.9 04:07:14 10° SSE 04:10:47 11° SSE 04:14:06 10° SE visible
26 Nov 11.3 06:09:39 10° SSW 06:19:41 22° SSE 06:27:19 10° ESE visible
